• In Hungary
  • List of Countries
  • For 7 days
  • Water Temperature
  • Satellite Maps
  • Weather Map
  • News
  • Weather Widgets
  • user-avatar
    Login

    Hourly Weather Folkern

    Today, 15 October, Monday

    Time Temperature Precipitation Wind Pressure Humidity
    00:00 +9°C° 0 mm 10 mps 757 mmHg 76%
    01:00 +9°C° 0.3 mm 10 mps 757 mmHg 77%
    02:00 +9°C° 0.3 mm 10 mps 757 mmHg 78%
    03:00 +10°C° 0.3 mm 9 mps 757 mmHg 79%
    04:00 +10°C° 0.2 mm 9 mps 757 mmHg 79%
    05:00 +10°C° 0.2 mm 9 mps 757 mmHg 79%
    06:00 +10°C° 0 mm 9 mps 757 mmHg 78%
    07:00 +10°C° 0.2 mm 9 mps 758 mmHg 78%
    08:00 +10°C° 0.2 mm 9 mps 758 mmHg 78%
    09:00 +10°C° 0.2 mm 8 mps 758 mmHg 78%
    10:00 +10°C° 0.1 mm 8 mps 759 mmHg 78%
    11:00 +11°C° 0.1 mm 8 mps 759 mmHg 77%
    12:00 +11°C° 0.1 mm 7 mps 759 mmHg 77%
    13:00 +11°C° 0 mm 7 mps 759 mmHg 78%
    14:00 +11°C° 0 mm 7 mps 759 mmHg 78%
    15:00 +11°C° 0 mm 7 mps 759 mmHg 79%
    16:00 +11°C° 0 mm 7 mps 758 mmHg 80%
    17:00 +10°C° 0 mm 8 mps 758 mmHg 82%
    18:00 +10°C° 0 mm 8 mps 758 mmHg 83%
    19:00 +10°C° 0 mm 9 mps 758 mmHg 81%
    20:00 +9°C° 0 mm 10 mps 758 mmHg 80%
    21:00 +9°C° 0 mm 10 mps 757 mmHg 79%
    22:00 +9°C° 0 mm 11 mps 757 mmHg 77%
    23:00 +9°C° 0 mm 12 mps 756 mmHg 75%

    Tomorrow, 16 October, Tuesday

    Time Temperature Precipitation Wind Pressure Humidity
    00:00 +9°C° 0 mm 13 mps 756 mmHg 73%
    01:00 +9°C° 0 mm 13 mps 755 mmHg 72%
    02:00 +9°C° 0 mm 14 mps 754 mmHg 72%
    03:00 +9°C° 0 mm 15 mps 753 mmHg 72%
    04:00 +9°C° 0.1 mm 15 mps 752 mmHg 73%
    05:00 +9°C° 0.1 mm 16 mps 751 mmHg 75%
    06:00 +9°C° 0.1 mm 16 mps 750 mmHg 77%
    07:00 +9°C° 0.9 mm 16 mps 750 mmHg 77%
    08:00 +9°C° 0.9 mm 16 mps 749 mmHg 77%
    09:00 +9°C° 0.9 mm 16 mps 749 mmHg 77%
    10:00 +10°C° 0.6 mm 15 mps 749 mmHg 80%
    11:00 +10°C° 0.6 mm 14 mps 749 mmHg 84%
    12:00 +10°C° 0.6 mm 13 mps 749 mmHg 87%
    13:00 +10°C° 0.1 mm 13 mps 749 mmHg 84%
    14:00 +10°C° 0.1 mm 13 mps 749 mmHg 82%
    15:00 +12°C° 0.1 mm 13 mps 749 mmHg 79%
    16:00 +10°C° 0.4 mm 13 mps 750 mmHg 81%
    17:00 +10°C° 0.4 mm 12 mps 750 mmHg 82%
    18:00 +11°C° 0.4 mm 11 mps 750 mmHg 84%
    19:00 +11°C° 0.2 mm 11 mps 751 mmHg 82%
    20:00 +11°C° 0.2 mm 10 mps 751 mmHg 81%
    21:00 +9°C° 0.2 mm 10 mps 752 mmHg 79%
    22:00 +9°C° 0.1 mm 10 mps 753 mmHg 76%
    23:00 +9°C° 0.1 mm 11 mps 753 mmHg 73%

    Day after tomorrow, 17 October, Wednesday

    Time Temperature Precipitation Wind Pressure Humidity
    00:00 +8°C° 0.1 mm 11 mps 754 mmHg 70%
    01:00 +8°C° 0 mm 11 mps 754 mmHg 68%
    02:00 +8°C° 0 mm 10 mps 755 mmHg 67%
    03:00 +8°C° 0 mm 10 mps 756 mmHg 65%
    04:00 +8°C° 0.1 mm 9 mps 756 mmHg 67%
    05:00 +8°C° 0.1 mm 9 mps 757 mmHg 68%
    06:00 +8°C° 0.1 mm 9 mps 758 mmHg 69%
    07:00 +8°C° 0.1 mm 9 mps 759 mmHg 69%
    08:00 +9°C° 0.1 mm 8 mps 759 mmHg 68%
    09:00 +9°C° 0.1 mm 8 mps 760 mmHg 67%
    10:00 +9°C° 0.1 mm 8 mps 761 mmHg 67%
    11:00 +9°C° 0.1 mm 8 mps 762 mmHg 67%
    12:00 +10°C° 0.1 mm 8 mps 762 mmHg 67%
    13:00 +10°C° 0.1 mm 8 mps 763 mmHg 66%
    14:00 +9°C° 0.1 mm 8 mps 763 mmHg 66%
    15:00 +9°C° 0.1 mm 8 mps 764 mmHg 65%
    16:00 +9°C° 0.1 mm 7 mps 764 mmHg 66%
    17:00 +9°C° 0.1 mm 7 mps 765 mmHg 68%
    18:00 +9°C° 0.1 mm 7 mps 766 mmHg 69%
    19:00 +8°C° 0 mm 7 mps 766 mmHg 69%
    20:00 +8°C° 0 mm 6 mps 767 mmHg 69%
    21:00 +8°C° 0 mm 6 mps 768 mmHg 69%
    22:00 +8°C° 0 mm 6 mps 768 mmHg 68%
    23:00 +8°C° 0 mm 6 mps 768 mmHg 67%

    18 October, Thursday

    Time Temperature Precipitation Wind Pressure Humidity
    00:00 +8°C° 0 mm 5 mps 769 mmHg 67%
    01:00 +8°C° 0 mm 5 mps 769 mmHg 66%
    02:00 +8°C° 0 mm 5 mps 769 mmHg 66%
    03:00 +8°C° 0 mm 5 mps 769 mmHg 66%
    04:00 +8°C° 0 mm 5 mps 769 mmHg 65%
    05:00 +8°C° 0 mm 5 mps 769 mmHg 65%
    06:00 +8°C° 0 mm 5 mps 769 mmHg 64%
    07:00 +9°C° 0 mm 6 mps 769 mmHg 64%
    08:00 +9°C° 0 mm 6 mps 769 mmHg 65%
    09:00 +9°C° 0 mm 6 mps 769 mmHg 65%
    10:00 +9°C° 0 mm 7 mps 768 mmHg 66%
    11:00 +9°C° 0 mm 8 mps 768 mmHg 67%
    12:00 +9°C° 0 mm 8 mps 768 mmHg 68%
    13:00 +8°C° 0.1 mm 9 mps 768 mmHg 69%
    14:00 +8°C° 0.1 mm 9 mps 767 mmHg 70%
    15:00 +8°C° 0.1 mm 9 mps 767 mmHg 72%
    16:00 +8°C° 0.1 mm 10 mps 766 mmHg 73%
    17:00 +8°C° 0.1 mm 10 mps 766 mmHg 74%
    18:00 +8°C° 0.1 mm 11 mps 766 mmHg 75%
    19:00 +8°C° 0.1 mm 11 mps 765 mmHg 74%
    20:00 +8°C° 0.1 mm 12 mps 765 mmHg 74%
    21:00 +8°C° 0.1 mm 12 mps 765 mmHg 74%
    22:00 +9°C° 0.1 mm 13 mps 764 mmHg 74%
    23:00 +9°C° 0.1 mm 13 mps 764 mmHg 75%

    19 October, Friday

    Time Temperature Precipitation Wind Pressure Humidity
    00:00 +9°C° 0.1 mm 14 mps 763 mmHg 76%
    01:00 +9°C° 0.3 mm 14 mps 763 mmHg 78%
    02:00 +9°C° 0.3 mm 14 mps 762 mmHg 80%
    03:00 +9°C° 0.3 mm 14 mps 762 mmHg 83%
    04:00 +9°C° 0.3 mm 13 mps 762 mmHg 85%
    05:00 +9°C° 0.3 mm 13 mps 762 mmHg 86%
    06:00 +10°C° 0.3 mm 12 mps 762 mmHg 88%
    07:00 +11°C° 0.2 mm 11 mps 762 mmHg 88%
    08:00 +11°C° 0.2 mm 9 mps 762 mmHg 87%
    09:00 +11°C° 0.2 mm 8 mps 762 mmHg 86%
    10:00 +11°C° 0 mm 7 mps 762 mmHg 83%
    11:00 +11°C° 0 mm 6 mps 763 mmHg 80%
    12:00 +11°C° 0 mm 6 mps 763 mmHg 77%
    13:00 +12°C° 0 mm 5 mps 763 mmHg 77%
    14:00 +12°C° 0 mm 5 mps 763 mmHg 78%
    15:00 +10°C° 0 mm 5 mps 763 mmHg 78%
    16:00 +10°C° 0 mm 5 mps 763 mmHg 80%
    17:00 +10°C° 0 mm 5 mps 763 mmHg 83%
    18:00 +10°C° 0 mm 6 mps 763 mmHg 85%
    19:00 +10°C° 0 mm 6 mps 763 mmHg 87%
    20:00 +11°C° 0 mm 7 mps 763 mmHg 89%
    21:00 +11°C° 0 mm 7 mps 763 mmHg 91%
    22:00 +11°C° 0 mm 8 mps 763 mmHg 92%
    23:00 +11°C° 0 mm 9 mps 762 mmHg 92%

    20 October, Saturday

    Time Temperature Precipitation Wind Pressure Humidity
    00:00 +11°C° 0 mm 9 mps 762 mmHg 92%
    01:00 +11°C° 0.2 mm 10 mps 762 mmHg 92%
    02:00 +11°C° 0.2 mm 10 mps 762 mmHg 92%
    03:00 +11°C° 0.2 mm 10 mps 761 mmHg 93%
    04:00 +12°C° 0.7 mm 10 mps 761 mmHg 94%
    05:00 +12°C° 0.7 mm 11 mps 761 mmHg 95%
    06:00 +12°C° 0.7 mm 11 mps 761 mmHg 96%
    07:00 +13°C° 0.1 mm 10 mps 761 mmHg 96%
    08:00 +13°C° 0.1 mm 10 mps 761 mmHg 96%
    09:00 +13°C° 0.1 mm 10 mps 762 mmHg 96%
    10:00 +13°C° 0.1 mm 10 mps 762 mmHg 95%
    11:00 +13°C° 0.1 mm 10 mps 762 mmHg 95%
    12:00 +13°C° 0.1 mm 10 mps 763 mmHg 95%
    13:00 +13°C° 0 mm 10 mps 762 mmHg 95%
    14:00 +13°C° 0 mm 10 mps 762 mmHg 95%
    15:00 +13°C° 0 mm 10 mps 762 mmHg 95%
    16:00 +13°C° 0.1 mm 10 mps 762 mmHg 95%
    17:00 +13°C° 0.1 mm 11 mps 762 mmHg 95%
    18:00 +13°C° 0.1 mm 11 mps 762 mmHg 95%
    19:00 +13°C° 0.1 mm 12 mps 762 mmHg 95%
    20:00 +13°C° 0.1 mm 12 mps 762 mmHg 95%
    21:00 +13°C° 0.1 mm 13 mps 762 mmHg 94%
    22:00 +13°C° 0.1 mm 13 mps 761 mmHg 95%
    23:00 +13°C° 0.1 mm 13 mps 761 mmHg 95%
    Show more